Location: Beverley
(50.2667°N, 107.9667°W)
Time: 09:50:35
(UTC+00:00)

IRIDIUM 175 - Visible Passes

Search period start: 27 November 2022 00:00
Search period end: 07 December 2022 00:00
Orbit: 652 x 655 km, 86.6° (Epoch: 26 November)

Date Brightness Start Highest point End Pass type
(mag) Time Alt. Az. Time Alt. Az. Time Alt. Az.
27 Nov ? 14:06:27 10° SSE 14:10:45 43° E 14:15:05 10° NNE visible
28 Nov ? 12:59:47 10° E 13:01:28 12° ENE 13:03:09 10° NE visible
29 Nov ? 02:21:02 10° N 02:21:27 12° NNW 02:21:27 12° NNW visible
29 Nov ? 13:25:38 10° SE 13:29:14 23° E 13:32:50 10° NNE visible
30 Nov ? 01:11:16 10° N 01:20:39 - SSE 01:12:36 18° NNE visible
30 Nov ? 02:49:36 10° NNW 02:58:21 - SW 02:50:34 15° NNW visible
30 Nov ? 13:52:48 10° SSE 13:57:09 46° E 14:01:32 10° NNE visible
01 Dec ? 00:04:06 10° NE 00:04:49 10° ENE 00:04:59 10° ENE visible
01 Dec ? 01:39:13 10° N 01:44:38 57° SSE 01:48:22 10° S visible
01 Dec ? 03:18:48 10° NW 03:21:19 15° WNW 03:23:49 10° WSW visible
01 Dec ? 12:45:52 10° E 12:47:51 13° ENE 12:49:50 10° NE visible
02 Dec ? 00:30:05 10° NNE 00:33:28 20° ENE 00:36:51 10° ESE visible
02 Dec ? 02:07:28 10° NNW 02:11:57 53° W 02:16:23 10° SSW visible
02 Dec ? 13:11:55 10° SE 13:15:36 25° E 13:19:19 10° NNE visible
03 Dec ? 00:57:38 10° N 01:01:56 38° E 01:06:13 10° SSE visible
03 Dec ? 02:36:04 10° NNW 02:39:53 27° W 02:43:42 10° SW visible
03 Dec ? 13:39:09 10° SSE 13:43:33 49° E 13:47:58 10° NNE visible
03 Dec ? 23:49:57 10° NE 23:51:16 11° ENE 23:52:35 10° E visible
04 Dec ? 01:25:37 10° N 01:30:13 79° E 01:34:48 10° S visible
04 Dec ? 03:05:23 10° NW 03:07:41 14° WNW 03:09:58 10° WSW visible
04 Dec ? 12:31:58 10° ESE 12:34:13 14° ENE 12:36:27 10° NE visible
04 Dec ? 14:07:05 10° S 14:11:39 80° W 14:16:15 10° N visible
05 Dec ? 00:16:24 10° NNE 00:19:55 21° ENE 00:23:25 10° ESE visible
05 Dec ? 01:53:54 10° NNW 01:58:20 50° W 02:02:44 10° SSW visible
05 Dec ? 12:58:12 10° SE 13:01:59 26° E 13:05:47 10° NNE visible
06 Dec ? 00:44:00 10° N 00:48:22 41° E 00:52:41 10° SSE visible
06 Dec ? 02:22:33 10° NNW 02:26:16 25° W 02:29:59 10° SW visible
06 Dec ? 13:25:30 10° SSE 13:29:56 53° E 13:34:23 10° NNE visible
